Cloud_Cover
100 100 100 100 100 94 34 100 100 90 99 100 100 100 100 100 100 76 9 10 91 22 47 92 100 100 71 74 12 5 4 0 4 0 0 0 5 6 5 0 0 0 0
100 100 100 100 90 83 100 100 100 100 100 100 100 100 100 100 99 100 100 100 100 100 100 100 89 29 6 5 4 0 0 0 0 0 2 5 21 5 0 0 0 0 0
92 100 100 93 99 100 100 100 100 100 100 100 100 100 100 100 100 100 100 100 100 100 100 92 14 31 13 5 5 5 4 1 0 5 5 76 15 0 1 4 0 0 0
100 100 96 100 100 100 99 100 100 100 100 100 100 100 100 100 100 100 100 100 100 100 75 76 39 32 66 42 12 5 5 5 5 97 78 5 5 5 5 5 2 5 5
64 83 100 100 100 86 95 100 100 100 100 100 100 100 100 100 100 100 100 95 100 100 99 53 28 63 85 94 11 5 5 5 93 38 5 8 12 15 35 5 8 77 5
63 92 100 100 100 100 100 100 100 95 100 100 100 100 100 100 100 100 100 100 100 100 100 89 100 100 100 51 13 34 30 100 90 68 5 87 63 74 5 82 100 100 50
100 100 100 100 100 100 100 100 100 100 100 100 100 100 100 100 100 100 100 100 100 99 100 100 100 100 100 82 83 100 100 66 5 5 5 100 86 9 6 87 100 100 90
100 100 100 100 100 100 100 100 100 100 100 100 100 100 100 100 100 100 100 100 100 100 100 100 100 100 100 87 100 100 100 47 0 1 2 5 5 5 95 100 100 25 5
98 100 100 100 100 100 100 100 100 100 100 100 100 100 100 100 100 100 100 100 100 100 100 100 100 100 100 100 100 70 5 5 5 5 94 100 100 100 100 65 5 86 15
100 100 100 100 100 100 100 100 100 100 100 100 100 100 100 100 100 100 100 100 100 100 100 100 100 100 100 88 43 5 5 20 9 5 5 75 100 100 79 100 72 87 100
100 100 100 100 100 100 100 100 100 100 100 100 100 100 100 100 100 100 100 100 100 100 100 100 100 100 100 59 37 26 5 19 53 88 85 100 100 98 91 100 100 98 94
100 100 100 100 100 100 100 100 100 100 100 100 100 100 100 100 100 100 100 100 100 100 100 100 100 86 44 97 88 87 100 100 100 87 100 100 97 64 86 93 98 89 95
100 100 100 100 100 100 100 100 100 100 100 100 100 100 100 100 100 100 100 100 100 100 100 78 64 91 97 98 98 100 100 100 100 98 90 67 91 67 53 94 60 63 57
100 100 100 100 100 100 100 100 100 100 100 100 100 100 100 100 100 100 100 100 100 99 100 84 78 95 100 100 97 92 100 100 100 100 99 47 68 17 7 55 10 38 93
100 100 100 100 100 100 100 100 100 100 100 100 100 100 100 100 100 100 100 97 94 78 100 71 70 100 100 89 100 99 100 100 100 100 97 70 97 100 29 25 5 50 99
100 100 100 100 100 100 100 100 100 100 100 100 100 94 100 100 96 74 47 98 90 91 77 93 99 100 94 98 100 92 86 75 99 99 98 99 94 100 98 73 9 91 99
100 100 100 100 100 100 100 100 100 100 100 100 96 98 72 21 93 100 100 98 100 85 100 93 79 89 100 100 100 100 100 100 100 100 99 100 100 100 100 97 74 100 100
100 100 100 100 100 100 100 100 100 98 99 98 100 100 100 100 100 82 75 70 67 86 99 96 77 58 17 5 17 5 67 100 91 98 98 100 100 100 100 81 100 100 100
100 100 100 100 100 99 76 70 60 35 62 64 100 92 95 97 99 100 72 68 65 63 65 87 49 52 26 26 8 58 94 100 86 90 100 100 100 100 98 100 100 100 100
86 76 54 44 57 50 34 20 6 5 5 10 59 98 82 7 38 56 78 85 62 49 52 76 38 65 99 80 94 100 100 82 16 73 89 100 100 100 100 100 100 100 100
51 47 15 5 5 5 8 5 5 5 27 70 17 62 42 73 78 92 100 69 53 52 51 61 57 100 100 89 94 100 100 85 63 71 67 100 100 100 100 100 100 100 100
5 5 11 14 9 5 18 5 5 12 41 81 86 89 99 100 100 100 100 100 100 89 6 46 63 73 71 100 100 100 100 97 66 42 74 79 100 100 100 100 100 100 100
5 5 5 5 5 5 10 44 52 6 29 83 100 100 100 100 100 100 77 26 13 5 5 40 37 22 5 72 55 83 100 92 16 92 92 76 83 100 100 100 100 72 100
5 5 24 58 67 67 64 68 72 100 100 100 100 100 100 100 88 40 15 25 29 7 5 31 31 39 16 16 46 49 73 73 84 100 100 95 77 100 100 98 48 54 93
30 38 51 66 66 94 100 98 100 100 98 85 76 78 66 70 90 67 7 70 64 11 5 5 5 8 5 31 5 23 34 90 87 96 77 73 73 72 100 95 62 30 63
39 82 95 87 86 91 91 80 77 80 98 100 100 74 61 55 22 69 84 40 8 5 5 5 5 5 5 6 5 35 72 97 23 20 5 58 78 96 97 91 65 27 28